STARLINK-31685, 59578

Orbit data source: Space-Track

STARLINK-31685, 59578 is a payload satellite owned by SpaceX/Seattle (US) in LEO that was launched on Tue, 23 Apr 2024 UTC via an FALCON 9 launch vehicle from the Air Force Eastern Test Range (AFETR). Payload-class satellites include a variety of spacecraft equipped with specific instruments for various scientific and technological missions. These include communications satellites like Starlink; space stations such as the ISS; scientific satellites like the Hubble; Earth observation satellites from companies like Planet Labs, Umbra, and HawkEye 360; GPS; miniature CubeSats for education and research; and military/defense satellites.

Loading next visibility...
Identifier
59578, 2024-076Q
Orbit
LEO
Country
Flag of USUS
Related business
Manufacturer
SpaceX/Seattle
Mission
Operational Commercial Communications
Bus & Motor
STARLINK V2M, Unknown motor
Mass
730 kg wet, ~700 kg dry
Launch date (UTC)
2024-04-23 (2 years ago)
Launch vehicle
FALCON 9
Launch site
Air Force Eastern Test Range (AFETR)
Object type
Payload
Rocket body
Debris
Shape & HBR
Box + 2 Pan, 17.7 m
Radar Cross Section
33.884 m², Large (>1 m²)

Expand to show TLE details & history
Last TLE update: 14 hours ago

TLE from 14 hours ago
0 STARLINK-31685
1 59578U 24076Q   25346.70473963 -.00001005  00000-0 -27020-4 0  9995
2 59578  42.9991 139.8729 0001501 278.8243  81.2439 15.27568819 93203
Epoch: 2025-12-12T16:54Z
TLE epoch observation values (Epoch: 2025-12-12T16:54:49.504Z)
Latitude
0.00003°
Longitude
164.52413°
Altitude
482.701 km
Speed
7.626 km/s
True Right ascension
09h 19m 29s
True Declination
0° 00' 00"
Sunlit
Object was in full shadow at epoch
Visualization orbit readout
Latitude
Unknown
Longitude
Unknown
Altitude
Unknown
Speed
Unknown
Apparent Right ascension
Unknown
Apparent Declination
Unknown
Sunlit
N/A
Visualization observer readout
Local Sidereal Time
05:27:20
Azimuth
Unknown
Elevation
Unknown
Doppler factor
Unknown
Orbital elements
Apogee altitude
486.058 km
Perigee altitude
483.998 km
Semi-major axis
6,863.165 km
Eccentricity
0.00015
Inclination
42.9991°
RAAN
139.8729°
Arg. of periapsis
278.8243°
True anomaly
81.2609°
Mean anomaly
81.2439°
Eccentric anomaly
81.2524°
Mean motion
3.8173 °/min
Orbital period
94.31 mins
BSTAR
-0.00002702
Loading maneuver chart data...
Computing Atmospheric mass density...
Loading historical data...
Loading historical data...
Loading historical data...
Loading historical data...
Loading historical data...
Loading historical data...
Loading historical data...

Documentation

Showing up to 5 results
|